Weather Roundup
Issued by NWS Chicago, IL

Home | Current Version | Previous Version | Graphics & Text | Print | Product List | Glossary On
Versions: 1 2 3 4 5 6 7 8 9 10 11 12 13 14 15 16 17 18 19 20 21 22 23 24 25 26 27 28 29 30 31 32 33 34 35 36 37 38 39 40 41 42 43 44 45 46 47 48 49 50
000
NZUS59 KLOT 280303
HRRLOT

CHICAGO AREA WEATHER ROUNDUP
NATIONAL WEATHER SERVICE CHICAGO/ROMEOVILLE IL
1000 PM CDT MON MAR 27 2017

NOTE: "FAIR" INDICATES FEW OR NO CLOUDS BELOW 12,000 FEET WITH NO
SIGNIFICANT WEATHER AND/OR OBSTRUCTIONS TO VISIBILITY.

* THESE STATIONS ARE NOT UNDER NWS QUALITY CONTROL. THEY ALSO MAY NOT
  REPORT WEATHER SUCH AS PRECIPITATION OR FOG.

ILZ005-006-012>014-019>023-280400-
NORTHEAST ILLINOIS

CITY           SKY/WX    TMP DP  RH WIND       PRES   REMARKS
OHARE          CLOUDY    43  36  76 NE12      29.97R
MIDWAY         CLOUDY    44  37  76 NE9       29.97R
AURORA         CLOUDY    45  41  86 NE10      29.97R
LANSING*       CLOUDY    41  40  95 N7        29.97R
JOLIET*        CLOUDY    46  42  86 NE7       29.96R
WAUKEGAN       CLOUDY    38  37  97 NE6       29.98R
DUPAGE AIRPORT CLOUDY    43  40  89 NE9       29.96R
WHEELING       CLOUDY    40  38  93 NE7       29.99R
MORRIS*        CLOUDY    46  43  88 NE6       29.95S FOG
NORTHERLY ISL    N/A     39  37  92 N8          N/A
$$

WIZ051-052-058>065-066-070>072-280400-
SOUTHEAST WISCONSIN

CITY           SKY/WX    TMP DP  RH WIND       PRES   REMARKS
MILWAUKEE      CLOUDY    39  35  86 NE9       29.99R
KENOSHA*       CLOUDY    40  36  86 NE7       29.98R
RACINE*        CLOUDY    38  35  89 N8        30.00R
$$

INZ001>003-010>013-019-020-280400-
NORTHWEST INDIANA

CITY           SKY/WX    TMP DP  RH WIND       PRES   REMARKS
GARY*          CLOUDY    41  37  87 N7        29.98R
MICHIGAN CITY* NOT AVBL
RENSSELAER*    NOT AVBL
VALPARAISO     CLOUDY    44  40  85 N9        29.95R
$$

LMZ740>746-280400-
SOUTHERN LAKE MICHIGAN

STATION/POSITION TIME  SKY/WX   TEMP WIND        PRES    VSBY
                                AIR  DIR/SP/G
                 (UTC)          (F)  (DEG/KT/KT) (MB)    (MI)
HARRISON CRIB    0240            39  340/  9/ 10   N/A
BURNHAM HARBOR   0300            39  350/  6/ 10   N/A
CALUMET HARBOR   0230            39  350/  8/ 10 1014.4R
BURNS HARBOR     0240            39   30/  7/  9 1015.2R
MICHIGAN CITY    0240            38   20/ 13/ 14   N/A
$$

ABBREVIATIONS USED IN REMARKS
   TC - TEMPERATURE IN CELSIUS
  WCI - WIND CHILL INDEX
   HX - HEAT INDEX
  VSB - VISIBILITY
$$




USA.gov is the U.S. government's official web portal to all federal, state and local government web resources and services.